Time,TemperatureF,DewpointF,PressureIn,WindDirection,WindDirectionDegrees,WindSpeedMPH,WindSpeedGustMPH,Humidity,HourlyPrecipIn,Conditions,Clouds,dailyrainin,SoftwareType,DateUTC
2013-02-26 00:00:00,46.6,29.5,29.86,WNW,293,6.0,10.0,51,0.00,,SKC,0.00,VWS V14.01,2013-02-26 06:00:00,
2013-02-26 00:05:00,46.5,29.8,29.86,WNW,294,7.0,12.0,52,0.00,,SKC,0.00,VWS V14.01,2013-02-26 06:05:00,
2013-02-26 00:10:00,46.4,29.8,29.86,West,271,7.0,12.0,52,0.00,,SKC,0.00,VWS V14.01,2013-02-26 06:10:00,
2013-02-26 00:15:00,46.5,29.8,29.86,WNW,300,7.0,19.0,52,0.00,,SKC,0.00,VWS V14.01,2013-02-26 06:15:00,
2013-02-26 00:20:00,46.4,29.8,29.86,WNW,291,11.0,16.0,52,0.00,,SKC,0.00,VWS V14.01,2013-02-26 06:20:00,
2013-02-26 00:25:00,46.4,29.8,29.86,NW,319,7.0,18.0,52,0.00,,SKC,0.00,VWS V14.01,2013-02-26 06:25:00,
2013-02-26 00:30:00,46.3,29.6,29.86,NW,312,6.0,13.0,52,0.00,,SKC,0.00,VWS V14.01,2013-02-26 06:30:00,
2013-02-26 00:35:00,46.2,29.6,29.86,WNW,288,17.0,17.0,52,0.00,,SKC,0.00,VWS V14.01,2013-02-26 06:35:00,
2013-02-26 00:40:00,46.1,29.5,29.86,WNW,293,0.0,12.0,52,0.00,,SKC,0.00,VWS V14.01,2013-02-26 06:40:00,
2013-02-26 00:45:00,46.0,29.4,29.86,WNW,302,11.0,17.0,52,0.00,,SKC,0.00,VWS V14.01,2013-02-26 06:45:00,
2013-02-26 00:50:00,46.0,29.4,29.86,WNW,284,4.0,14.0,52,0.00,,SKC,0.00,VWS V14.01,2013-02-26 06:50:00,
2013-02-26 00:55:00,45.9,29.3,29.87,WNW,301,8.0,15.0,52,0.00,,SKC,0.00,VWS V14.01,2013-02-26 06:55:00,
2013-02-26 01:00:00,45.9,29.8,29.87,WNW,300,8.0,21.0,53,0.00,,SKC,0.00,VWS V14.01,2013-02-26 07:00:00,
2013-02-26 01:05:00,45.9,29.8,29.87,NW,323,8.0,21.0,53,0.00,,SKC,0.00,VWS V14.01,2013-02-26 07:05:00,
2013-02-26 01:10:00,45.9,29.8,29.87,NW,305,4.0,13.0,53,0.00,,SKC,0.00,VWS V14.01,2013-02-26 07:10:00,
2013-02-26 01:15:00,45.7,29.6,29.87,WNW,288,8.0,13.0,53,0.00,,SKC,0.00,VWS V14.01,2013-02-26 07:15:00,
2013-02-26 01:20:00,45.6,29.5,29.87,WNW,298,9.0,12.0,53,0.00,,SKC,0.00,VWS V14.01,2013-02-26 07:20:00,
2013-02-26 01:25:00,45.5,29.4,29.87,WNW,296,6.0,12.0,53,0.00,,SKC,0.00,VWS V14.01,2013-02-26 07:25:00,
2013-02-26 01:30:00,45.3,29.6,29.87,WNW,295,7.0,12.0,54,0.00,,SKC,0.00,VWS V14.01,2013-02-26 07:30:00,
2013-02-26 01:35:00,45.2,29.6,29.86,WNW,291,7.0,13.0,54,0.00,,SKC,0.00,VWS V14.01,2013-02-26 07:35:00,
2013-02-26 01:40:00,45.1,29.5,29.87,WNW,284,8.0,11.0,54,0.00,,SKC,0.00,VWS V14.01,2013-02-26 07:40:00,
2013-02-26 01:45:00,45.0,29.4,29.87,WNW,297,6.0,14.0,54,0.00,,SKC,0.00,VWS V14.01,2013-02-26 07:45:00,
2013-02-26 01:50:00,44.9,29.3,29.86,WNW,289,6.0,13.0,54,0.00,,SKC,0.00,VWS V14.01,2013-02-26 07:50:00,
2013-02-26 01:55:00,44.8,29.2,29.87,WNW,290,4.0,13.0,54,0.00,,SKC,0.00,VWS V14.01,2013-02-26 07:55:00,
2013-02-26 02:00:00,44.7,29.5,29.87,NW,305,9.0,13.0,55,0.00,,SKC,0.00,VWS V14.01,2013-02-26 08:00:00,
2013-02-26 02:05:00,44.7,29.5,29.87,WNW,298,6.0,13.0,55,0.00,,SKC,0.00,VWS V14.01,2013-02-26 08:05:00,
2013-02-26 02:10:00,44.6,29.5,29.87,WNW,294,0.0,8.0,55,0.00,,SKC,0.00,VWS V14.01,2013-02-26 08:10:00,
2013-02-26 02:15:00,44.5,29.4,29.88,West,280,1.0,13.0,55,0.00,,SKC,0.00,VWS V14.01,2013-02-26 08:15:00,
2013-02-26 02:20:00,44.4,29.3,29.88,West,281,7.0,9.0,55,0.00,,SKC,0.00,VWS V14.01,2013-02-26 08:20:00,
2013-02-26 02:25:00,44.2,29.1,29.87,WNW,284,0.0,10.0,55,0.00,,SKC,0.00,VWS V14.01,2013-02-26 08:25:00,
2013-02-26 02:30:00,44.1,29.4,29.88,WNW,283,0.0,1.0,56,0.00,,SKC,0.00,VWS V14.01,2013-02-26 08:30:00,
2013-02-26 02:35:00,43.9,29.2,29.88,WNW,283,0.0,7.0,56,0.00,,SKC,0.00,VWS V14.01,2013-02-26 08:35:00,
2013-02-26 02:40:00,43.7,29.0,29.88,WNW,284,0.0,6.0,56,0.00,,SKC,0.00,VWS V14.01,2013-02-26 08:40:00,
2013-02-26 02:45:00,43.6,29.4,29.88,WNW,284,0.0,8.0,57,0.00,,SKC,0.00,VWS V14.01,2013-02-26 08:45:00,
2013-02-26 02:50:00,43.4,29.2,29.88,WNW,284,6.0,8.0,57,0.00,,SKC,0.00,VWS V14.01,2013-02-26 08:50:00,
2013-02-26 02:55:00,43.2,29.0,29.88,WNW,284,6.0,8.0,57,0.00,,SKC,0.00,VWS V14.01,2013-02-26 08:55:00,
2013-02-26 03:00:00,43.1,28.9,29.88,WNW,284,5.0,9.0,57,0.00,,SKC,0.00,VWS V14.01,2013-02-26 09:00:00,
2013-02-26 03:05:00,43.0,28.8,29.87,WNW,286,0.0,9.0,57,0.00,,SKC,0.00,VWS V14.01,2013-02-26 09:05:00,
2013-02-26 03:10:00,42.9,29.2,29.87,WNW,289,0.0,8.0,58,0.00,,SKC,0.00,VWS V14.01,2013-02-26 09:10:00,
2013-02-26 03:15:00,42.9,29.2,29.88,NW,310,4.0,11.0,58,0.00,,SKC,0.00,VWS V14.01,2013-02-26 09:15:00,
2013-02-26 03:20:00,42.8,29.1,29.88,NW,309,4.0,7.0,58,0.00,,SKC,0.00,VWS V14.01,2013-02-26 09:20:00,
2013-02-26 03:25:00,42.7,29.0,29.88,NW,309,0.0,7.0,58,0.00,,SKC,0.00,VWS V14.01,2013-02-26 09:25:00,
2013-02-26 03:30:00,42.6,28.9,29.89,NW,309,0.0,0.0,58,0.00,,SKC,0.00,VWS V14.01,2013-02-26 09:30:00,
2013-02-26 03:35:00,42.5,28.8,29.89,NW,309,0.0,0.0,58,0.00,,SKC,0.00,VWS V14.01,2013-02-26 09:35:00,
2013-02-26 03:40:00,42.4,28.7,29.89,NW,309,0.0,2.0,58,0.00,,SKC,0.00,VWS V14.01,2013-02-26 09:40:00,
2013-02-26 03:45:00,42.2,28.9,29.88,NW,306,0.0,9.0,59,0.00,,SKC,0.00,VWS V14.01,2013-02-26 09:45:00,
2013-02-26 03:50:00,42.1,28.8,29.89,NW,304,0.0,6.0,59,0.00,,SKC,0.00,VWS V14.01,2013-02-26 09:50:00,
2013-02-26 03:55:00,41.9,28.6,29.89,NW,304,0.0,6.0,59,0.00,,SKC,0.00,VWS V14.01,2013-02-26 09:55:00,
2013-02-26 04:00:00,41.7,28.9,29.88,NW,304,5.0,7.0,60,0.00,,SKC,0.00,VWS V14.01,2013-02-26 10:00:00,
2013-02-26 04:05:00,41.7,28.9,29.88,WNW,301,6.0,9.0,60,0.00,,SKC,0.00,VWS V14.01,2013-02-26 10:05:00,
2013-02-26 04:10:00,41.6,28.8,29.88,WNW,300,0.0,9.0,60,0.00,,SKC,0.00,VWS V14.01,2013-02-26 10:10:00,
2013-02-26 04:15:00,41.5,28.7,29.88,WNW,300,1.0,9.0,60,0.00,,SKC,0.00,VWS V14.01,2013-02-26 10:15:00,
2013-02-26 04:20:00,41.4,28.6,29.88,WNW,300,0.0,6.0,60,0.00,,SKC,0.00,VWS V14.01,2013-02-26 10:20:00,
2013-02-26 04:25:00,41.3,28.5,29.88,WNW,300,0.0,7.0,60,0.00,,SKC,0.00,VWS V14.01,2013-02-26 10:25:00,
2013-02-26 04:30:00,41.1,28.7,29.87,WNW,299,0.0,7.0,61,0.00,,SKC,0.00,VWS V14.01,2013-02-26 10:30:00,
2013-02-26 04:35:00,41.0,28.6,29.87,WNW,299,0.0,7.0,61,0.00,,SKC,0.00,VWS V14.01,2013-02-26 10:35:00,
2013-02-26 04:40:00,40.9,28.5,29.87,WNW,300,6.0,7.0,61,0.00,,SKC,0.00,VWS V14.01,2013-02-26 10:40:00,
2013-02-26 04:45:00,40.8,28.4,29.87,WNW,301,0.0,7.0,61,0.00,,SKC,0.00,VWS V14.01,2013-02-26 10:45:00,
2013-02-26 04:50:00,40.6,28.6,29.87,WNW,301,0.0,0.0,62,0.00,,SKC,0.00,VWS V14.01,2013-02-26 10:50:00,
2013-02-26 04:55:00,40.5,28.5,29.87,WNW,301,0.0,7.0,62,0.00,,SKC,0.00,VWS V14.01,2013-02-26 10:55:00,
2013-02-26 05:00:00,40.5,28.5,29.87,WNW,300,6.0,10.0,62,0.00,,SKC,0.00,VWS V14.01,2013-02-26 11:00:00,
2013-02-26 05:05:00,40.6,28.6,29.87,NW,309,7.0,10.0,62,0.00,,SKC,0.00,VWS V14.01,2013-02-26 11:05:00,
2013-02-26 05:10:00,40.5,28.5,29.87,NW,311,6.0,11.0,62,0.00,,SKC,0.00,VWS V14.01,2013-02-26 11:10:00,
2013-02-26 05:15:00,40.7,28.7,29.87,NW,313,10.0,13.0,62,0.00,,SKC,0.00,VWS V14.01,2013-02-26 11:15:00,
2013-02-26 05:20:00,40.9,28.5,29.87,NW,323,7.0,13.0,61,0.00,,SKC,0.00,VWS V14.01,2013-02-26 11:20:00,
2013-02-26 05:25:00,40.9,28.5,29.88,NW,317,8.0,13.0,61,0.00,,SKC,0.00,VWS V14.01,2013-02-26 11:25:00,
2013-02-26 05:30:00,40.8,28.4,29.88,NW,313,6.0,12.0,61,0.00,,SKC,0.00,VWS V14.01,2013-02-26 11:30:00,
2013-02-26 05:35:00,40.9,28.5,29.88,NW,313,0.0,12.0,61,0.00,,SKC,0.00,VWS V14.01,2013-02-26 11:35:00,
2013-02-26 05:40:00,40.9,28.9,29.89,NW,313,5.0,14.0,62,0.00,,SKC,0.00,VWS V14.01,2013-02-26 11:40:00,
2013-02-26 05:45:00,40.9,28.9,29.89,NNW,327,10.0,14.0,62,0.00,,SKC,0.00,VWS V14.01,2013-02-26 11:45:00,
2013-02-26 05:50:00,40.9,28.5,29.89,NW,309,8.0,13.0,61,0.00,,SKC,0.00,VWS V14.01,2013-02-26 11:50:00,
2013-02-26 05:55:00,40.7,28.3,29.89,NW,316,6.0,13.0,61,0.00,,SKC,0.00,VWS V14.01,2013-02-26 11:55:00,
2013-02-26 06:00:00,40.8,28.4,29.89,NW,314,5.0,11.0,61,0.00,,SKC,0.00,VWS V14.01,2013-02-26 12:00:00,
2013-02-26 06:05:00,40.8,28.8,29.90,NW,313,6.0,12.0,62,0.00,,SKC,0.00,VWS V14.01,2013-02-26 12:05:00,
2013-02-26 06:10:00,40.6,28.6,29.90,NW,309,7.0,15.0,62,0.00,,SKC,0.00,VWS V14.01,2013-02-26 12:10:00,
2013-02-26 06:15:00,40.5,28.5,29.91,NW,311,0.0,15.0,62,0.00,,SKC,0.00,VWS V14.01,2013-02-26 12:15:00,
2013-02-26 06:20:00,40.5,28.5,29.91,NW,313,6.0,10.0,62,0.00,,SKC,0.00,VWS V14.01,2013-02-26 12:20:00,
2013-02-26 06:25:00,40.4,28.8,29.91,NW,314,0.0,10.0,63,0.00,,SKC,0.00,VWS V14.01,2013-02-26 12:25:00,
2013-02-26 06:30:00,40.2,28.6,29.91,NW,314,0.0,9.0,63,0.00,,SKC,0.00,VWS V14.01,2013-02-26 12:30:00,
2013-02-26 06:35:00,40.0,28.4,29.91,NW,314,0.0,9.0,63,0.00,,SKC,0.00,VWS V14.01,2013-02-26 12:35:00,
2013-02-26 06:40:00,39.8,28.6,29.92,NW,314,0.0,0.0,64,0.00,,SKC,0.00,VWS V14.01,2013-02-26 12:40:00,
2013-02-26 06:45:00,39.5,28.0,29.92,NW,314,0.0,0.0,63,0.00,,SKC,0.00,VWS V14.01,2013-02-26 12:45:00,
2013-02-26 06:50:00,39.3,28.2,29.92,NW,313,0.0,0.0,64,0.00,,SKC,0.00,VWS V14.01,2013-02-26 12:50:00,
2013-02-26 06:55:00,39.1,28.0,29.93,NW,313,0.0,0.0,64,0.00,,SKC,0.00,VWS V14.01,2013-02-26 12:55:00,
2013-02-26 07:00:00,38.8,27.7,29.93,NW,313,0.0,0.0,64,0.00,,SKC,0.00,VWS V14.01,2013-02-26 13:00:00,
2013-02-26 07:05:00,38.6,27.9,29.93,NW,313,0.0,0.0,65,0.00,,SKC,0.00,VWS V14.01,2013-02-26 13:05:00,
2013-02-26 07:10:00,38.4,27.7,29.93,NW,313,0.0,0.0,65,0.00,,SKC,0.00,VWS V14.01,2013-02-26 13:10:00,
2013-02-26 07:15:00,38.2,27.5,29.93,NW,313,0.0,0.0,65,0.00,,SKC,0.00,VWS V14.01,2013-02-26 13:15:00,
2013-02-26 07:20:00,37.9,27.6,29.94,NW,313,0.0,0.0,66,0.00,,SKC,0.00,VWS V14.01,2013-02-26 13:20:00,
2013-02-26 07:25:00,37.8,27.5,29.94,NW,313,0.0,0.0,66,0.00,,SKC,0.00,VWS V14.01,2013-02-26 13:25:00,
2013-02-26 07:30:00,37.6,27.3,29.94,NW,313,0.0,0.0,66,0.00,,SKC,0.00,VWS V14.01,2013-02-26 13:30:00,
2013-02-26 07:35:00,37.5,27.5,29.94,NW,313,0.0,0.0,67,0.00,,SKC,0.00,VWS V14.01,2013-02-26 13:35:00,
2013-02-26 07:40:00,37.5,27.9,29.94,NW,313,0.0,0.0,68,0.00,,SKC,0.00,VWS V14.01,2013-02-26 13:40:00,
2013-02-26 07:45:00,37.7,28.1,29.94,NW,313,0.0,0.0,68,0.00,,SKC,0.00,VWS V14.01,2013-02-26 13:45:00,
2013-02-26 07:50:00,38.0,28.4,29.94,NW,313,0.0,0.0,68,0.00,,SKC,0.00,VWS V14.01,2013-02-26 13:50:00,
2013-02-26 07:55:00,38.5,28.5,29.95,NW,314,0.0,0.0,67,0.00,,SKC,0.00,VWS V14.01,2013-02-26 13:55:00,
2013-02-26 08:00:00,39.2,28.8,29.96,NW,313,0.0,0.0,66,0.00,,SKC,0.00,VWS V14.01,2013-02-26 14:00:00,
2013-02-26 08:05:00,39.8,28.6,29.96,NW,313,0.0,8.0,64,0.00,,SKC,0.00,VWS V14.01,2013-02-26 14:05:00,
2013-02-26 08:10:00,40.7,29.1,29.96,NW,314,0.0,3.0,63,0.00,,SKC,0.00,VWS V14.01,2013-02-26 14:10:00,
2013-02-26 08:15:00,41.7,29.3,29.96,NW,312,8.0,10.0,61,0.00,,SKC,0.00,VWS V14.01,2013-02-26 14:15:00,
2013-02-26 08:20:00,42.8,29.9,29.96,NW,313,0.0,5.0,60,0.00,,SKC,0.00,VWS V14.01,2013-02-26 14:20:00,
2013-02-26 08:25:00,43.8,30.0,29.96,WNW,303,0.0,5.0,58,0.00,,SKC,0.00,VWS V14.01,2013-02-26 14:25:00,
2013-02-26 08:30:00,44.7,30.0,29.95,NNW,330,0.0,0.0,56,0.00,,SKC,0.00,VWS V14.01,2013-02-26 14:30:00,
2013-02-26 08:35:00,45.5,30.3,29.95,NW,326,0.0,0.0,55,0.00,,SKC,0.00,VWS V14.01,2013-02-26 14:35:00,
2013-02-26 08:40:00,46.1,29.9,29.95,NW,317,0.0,0.0,53,0.00,,SKC,0.00,VWS V14.01,2013-02-26 14:40:00,
2013-02-26 08:45:00,46.7,30.5,29.95,NW,317,0.0,0.0,53,0.00,,SKC,0.00,VWS V14.01,2013-02-26 14:45:00,
2013-02-26 08:50:00,47.2,30.0,29.95,NNW,338,0.0,0.0,51,0.00,,SKC,0.00,VWS V14.01,2013-02-26 14:50:00,
2013-02-26 08:55:00,47.6,30.4,29.95,NW,314,0.0,1.0,51,0.00,,SKC,0.00,VWS V14.01,2013-02-26 14:55:00,
2013-02-26 09:00:00,48.0,31.2,29.95,NW,315,0.0,0.0,52,0.00,,SKC,0.00,VWS V14.01,2013-02-26 15:00:00,
2013-02-26 09:05:00,48.5,30.7,29.95,NNW,337,0.0,0.0,50,0.00,,SKC,0.00,VWS V14.01,2013-02-26 15:05:00,
2013-02-26 09:10:00,49.2,30.9,29.96,NW,315,0.0,0.0,49,0.00,,SKC,0.00,VWS V14.01,2013-02-26 15:10:00,
2013-02-26 09:15:00,50.0,30.6,29.96,NW,320,0.0,0.0,47,0.00,,SKC,0.00,VWS V14.01,2013-02-26 15:15:00,
2013-02-26 09:20:00,50.7,30.7,29.96,NNW,336,0.0,0.0,46,0.00,,SKC,0.00,VWS V14.01,2013-02-26 15:20:00,
2013-02-26 09:25:00,51.2,30.6,29.96,NW,319,0.0,0.0,45,0.00,,SKC,0.00,VWS V14.01,2013-02-26 15:25:00,
2013-02-26 09:30:00,51.7,30.5,29.97,NW,315,0.0,0.0,44,0.00,,SKC,0.00,VWS V14.01,2013-02-26 15:30:00,
2013-02-26 09:35:00,52.0,30.2,29.96,NW,321,0.0,0.0,43,0.00,,SKC,0.00,VWS V14.01,2013-02-26 15:35:00,
2013-02-26 09:40:00,52.1,30.3,29.96,NNW,328,0.0,1.0,43,0.00,,SKC,0.00,VWS V14.01,2013-02-26 15:40:00,
2013-02-26 09:45:00,52.3,31.0,29.96,NNW,338,0.0,1.0,44,0.00,,SKC,0.00,VWS V14.01,2013-02-26 15:45:00,
2013-02-26 09:50:00,52.8,30.9,29.96,NW,318,0.0,0.0,43,0.00,,SKC,0.00,VWS V14.01,2013-02-26 15:50:00,
2013-02-26 09:55:00,53.5,31.0,29.96,NW,310,0.0,0.0,42,0.00,,SKC,0.00,VWS V14.01,2013-02-26 15:55:00,
2013-02-26 10:00:00,53.9,30.8,29.96,NW,313,0.0,0.0,41,0.00,,SKC,0.00,VWS V14.01,2013-02-26 16:00:00,
2013-02-26 10:05:00,54.1,30.9,29.97,NW,317,0.0,0.0,41,0.00,,SKC,0.00,VWS V14.01,2013-02-26 16:05:00,
2013-02-26 10:10:00,54.3,31.1,29.96,NW,317,0.0,0.0,41,0.00,,SKC,0.00,VWS V14.01,2013-02-26 16:10:00,
2013-02-26 10:15:00,54.6,30.8,29.97,NW,320,0.0,0.0,40,0.00,,SKC,0.00,VWS V14.01,2013-02-26 16:15:00,
2013-02-26 10:20:00,55.1,31.2,29.97,WNW,294,0.0,0.0,40,0.00,,SKC,0.00,VWS V14.01,2013-02-26 16:20:00,
2013-02-26 10:25:00,55.5,31.0,29.97,WNW,302,0.0,0.0,39,0.00,,SKC,0.00,VWS V14.01,2013-02-26 16:25:00,
2013-02-26 10:30:00,56.0,31.4,29.96,WNW,302,0.0,0.0,39,0.00,,SKC,0.00,VWS V14.01,2013-02-26 16:30:00,
2013-02-26 10:35:00,56.5,31.2,29.96,NW,306,0.0,0.0,38,0.00,,SKC,0.00,VWS V14.01,2013-02-26 16:35:00,
2013-02-26 10:40:00,57.1,31.8,29.96,NW,306,0.0,0.0,38,0.00,,SKC,0.00,VWS V14.01,2013-02-26 16:40:00,
2013-02-26 10:45:00,57.8,32.4,29.96,NW,306,0.0,0.0,38,0.00,,SKC,0.00,VWS V14.01,2013-02-26 16:45:00,
2013-02-26 10:50:00,58.6,31.8,29.96,NW,306,0.0,6.0,36,0.00,,SKC,0.00,VWS V14.01,2013-02-26 16:50:00,
2013-02-26 10:55:00,59.4,31.0,29.96,WNW,298,0.0,8.0,34,0.00,,SKC,0.00,VWS V14.01,2013-02-26 16:55:00,
2013-02-26 11:00:00,60.3,31.1,29.96,NW,309,1.0,6.0,33,0.00,,SKC,0.00,VWS V14.01,2013-02-26 17:00:00,
2013-02-26 11:05:00,61.0,31.7,29.95,NW,308,0.0,6.0,33,0.00,,SKC,0.00,VWS V14.01,2013-02-26 17:05:00,
2013-02-26 11:10:00,61.9,31.0,29.96,NNW,331,0.0,0.0,31,0.00,,SKC,0.00,VWS V14.01,2013-02-26 17:10:00,
2013-02-26 11:15:00,62.7,30.8,29.95,WNW,301,0.0,0.0,30,0.00,,SKC,0.00,VWS V14.01,2013-02-26 17:15:00,
2013-02-26 11:20:00,63.2,32.1,29.96,WNW,302,0.0,0.0,31,0.00,,SKC,0.00,VWS V14.01,2013-02-26 17:20:00,
2013-02-26 11:25:00,63.9,31.0,29.96,WNW,300,0.0,0.0,29,0.00,,SKC,0.00,VWS V14.01,2013-02-26 17:25:00,
2013-02-26 11:30:00,64.5,31.6,29.96,WNW,300,0.0,1.0,29,0.00,,SKC,0.00,VWS V14.01,2013-02-26 17:30:00,
2013-02-26 11:35:00,64.7,30.9,29.95,WNW,288,0.0,1.0,28,0.00,,SKC,0.00,VWS V14.01,2013-02-26 17:35:00,
2013-02-26 11:40:00,64.9,31.9,29.95,WNW,288,0.0,0.0,29,0.00,,SKC,0.00,VWS V14.01,2013-02-26 17:40:00,
2013-02-26 11:45:00,64.8,30.1,29.94,WNW,290,0.0,0.0,27,0.00,,SKC,0.00,VWS V14.01,2013-02-26 17:45:00,
2013-02-26 11:50:00,65.0,30.2,29.94,WNW,290,0.0,0.0,27,0.00,,SKC,0.00,VWS V14.01,2013-02-26 17:50:00,
2013-02-26 11:55:00,65.5,30.7,29.95,WNW,300,0.0,0.0,27,0.00,,SKC,0.00,VWS V14.01,2013-02-26 17:55:00,
2013-02-26 12:00:00,66.1,30.2,29.94,WNW,299,0.0,0.0,26,0.00,,SKC,0.00,VWS V14.01,2013-02-26 18:00:00,
2013-02-26 12:05:00,65.9,30.1,29.94,WNW,296,0.0,0.0,26,0.00,,SKC,0.00,VWS V14.01,2013-02-26 18:05:00,
2013-02-26 12:10:00,65.9,31.0,29.93,WNW,296,0.0,0.0,27,0.00,,SKC,0.00,VWS V14.01,2013-02-26 18:10:00,
2013-02-26 12:15:00,66.1,30.2,29.92,WNW,298,0.0,0.0,26,0.00,,SKC,0.00,VWS V14.01,2013-02-26 18:15:00,
2013-02-26 12:20:00,66.8,30.8,29.92,WNW,298,0.0,0.0,26,0.00,,SKC,0.00,VWS V14.01,2013-02-26 18:20:00,
2013-02-26 12:25:00,67.6,31.5,29.92,WNW,298,0.0,0.0,26,0.00,,SKC,0.00,VWS V14.01,2013-02-26 18:25:00,
2013-02-26 12:30:00,68.3,29.1,29.92,WNW,298,0.0,0.0,23,0.00,,SKC,0.00,VWS V14.01,2013-02-26 18:30:00,
2013-02-26 12:35:00,68.5,29.3,29.92,WSW,252,0.0,0.0,23,0.00,,SKC,0.00,VWS V14.01,2013-02-26 18:35:00,
2013-02-26 12:40:00,68.3,31.1,29.92,WSW,246,0.0,0.0,25,0.00,,SKC,0.00,VWS V14.01,2013-02-26 18:40:00,
2013-02-26 12:45:00,68.6,30.4,29.91,West,274,0.0,0.0,24,0.00,,SKC,0.00,VWS V14.01,2013-02-26 18:45:00,
2013-02-26 12:50:00,68.9,28.5,29.91,West,276,0.0,0.0,22,0.00,,SKC,0.00,VWS V14.01,2013-02-26 18:50:00,
2013-02-26 12:55:00,68.6,30.4,29.91,West,275,0.0,0.0,24,0.00,,SKC,0.00,VWS V14.01,2013-02-26 18:55:00,
2013-02-26 13:00:00,68.6,30.4,29.90,West,275,0.0,1.0,24,0.00,,SKC,0.00,VWS V14.01,2013-02-26 19:00:00,
2013-02-26 13:05:00,68.7,29.4,29.90,West,265,0.0,1.0,23,0.00,,SKC,0.00,VWS V14.01,2013-02-26 19:05:00,
2013-02-26 13:10:00,68.2,29.0,29.89,West,263,0.0,0.0,23,0.00,,SKC,0.00,VWS V14.01,2013-02-26 19:10:00,
2013-02-26 13:15:00,68.0,29.9,29.89,WSW,254,0.0,0.0,24,0.00,,SKC,0.00,VWS V14.01,2013-02-26 19:15:00,
2013-02-26 13:20:00,67.9,29.8,29.89,SW,232,0.0,0.0,24,0.00,,SKC,0.00,VWS V14.01,2013-02-26 19:20:00,
2013-02-26 13:24:00,67.7,30.6,29.89,SW,231,0.0,0.0,25,0.00,,SKC,0.00,VWS V14.01,2013-02-26 19:24:00,
2013-02-26 13:29:00,67.6,30.6,29.89,SW,225,0.0,1.0,25,0.00,,SKC,0.00,VWS V14.01,2013-02-26 19:29:00,
2013-02-26 13:30:00,67.6,29.6,29.89,SW,230,0.0,1.0,24,0.00,,SKC,0.00,VWS V14.01,2013-02-26 19:30:00,
2013-02-26 13:34:00,67.2,30.2,29.89,SW,232,0.0,1.0,25,0.00,,SKC,0.00,VWS V14.01,2013-02-26 19:34:00,
2013-02-26 13:39:00,66.6,28.7,29.89,SW,217,0.0,0.0,24,0.00,,SKC,0.00,VWS V14.01,2013-02-26 19:39:00,
2013-02-26 13:40:00,67.0,30.0,29.89,SW,220,0.0,1.0,25,0.00,,SKC,0.00,VWS V14.01,2013-02-26 19:40:00,
2013-02-26 13:44:00,66.1,29.3,29.88,SW,216,0.0,0.0,25,0.00,,SKC,0.00,VWS V14.01,2013-02-26 19:44:00,
2013-02-26 13:49:00,66.1,30.2,29.88,SSW,212,0.0,0.0,26,0.00,,SKC,0.00,VWS V14.01,2013-02-26 19:49:00,
2013-02-26 13:50:00,66.1,29.3,29.89,SSW,209,0.0,0.0,25,0.00,,SKC,0.00,VWS V14.01,2013-02-26 19:50:00,
2013-02-26 13:54:00,66.1,30.2,29.88,SW,218,0.0,0.0,26,0.00,,SKC,0.00,VWS V14.01,2013-02-26 19:54:00,
2013-02-26 13:59:00,66.1,30.2,29.88,SW,214,0.0,1.0,26,0.00,,SKC,0.00,VWS V14.01,2013-02-26 19:59:00,
2013-02-26 14:00:00,66.2,30.3,29.88,SW,217,0.0,0.0,26,0.00,,SKC,0.00,VWS V14.01,2013-02-26 20:00:00,
2013-02-26 14:04:00,66.1,29.3,29.87,SSW,213,0.0,1.0,25,0.00,,SKC,0.00,VWS V14.01,2013-02-26 20:04:00,
2013-02-26 14:09:00,65.9,30.1,29.87,SW,221,0.0,0.0,26,0.00,,SKC,0.00,VWS V14.01,2013-02-26 20:09:00,
2013-02-26 14:10:00,66.0,30.2,29.88,SW,221,0.0,1.0,26,0.00,,SKC,0.00,VWS V14.01,2013-02-26 20:10:00,
2013-02-26 14:14:00,65.8,30.0,29.87,SW,223,0.0,0.0,26,0.00,,SKC,0.00,VWS V14.01,2013-02-26 20:14:00,
2013-02-26 14:19:00,65.6,29.8,29.87,SW,225,0.0,0.0,26,0.00,,SKC,0.00,VWS V14.01,2013-02-26 20:19:00,
2013-02-26 14:20:00,65.7,29.9,29.87,SW,223,0.0,0.0,26,0.00,,SKC,0.00,VWS V14.01,2013-02-26 20:20:00,
2013-02-26 14:24:00,65.6,29.8,29.87,SW,216,0.0,0.0,26,0.00,,SKC,0.00,VWS V14.01,2013-02-26 20:24:00,
2013-02-26 14:29:00,65.7,29.9,29.87,SW,221,0.0,0.0,26,0.00,,SKC,0.00,VWS V14.01,2013-02-26 20:29:00,
2013-02-26 14:30:00,65.6,29.8,29.87,SSW,211,0.0,0.0,26,0.00,,SKC,0.00,VWS V14.01,2013-02-26 20:30:00,
2013-02-26 14:34:00,66.1,30.2,29.87,SW,226,0.0,0.0,26,0.00,,SKC,0.00,VWS V14.01,2013-02-26 20:34:00,
2013-02-26 14:39:00,66.3,29.5,29.87,WSW,238,0.0,0.0,25,0.00,,SKC,0.00,VWS V14.01,2013-02-26 20:39:00,
2013-02-26 14:40:00,66.2,29.4,29.87,SW,236,0.0,0.0,25,0.00,,SKC,0.00,VWS V14.01,2013-02-26 20:40:00,
2013-02-26 14:44:00,66.6,28.7,29.86,SW,230,0.0,0.0,24,0.00,,SKC,0.00,VWS V14.01,2013-02-26 20:44:00,
2013-02-26 14:49:00,66.7,29.8,29.86,SW,236,0.0,0.0,25,0.00,,SKC,0.00,VWS V14.01,2013-02-26 20:49:00,
2013-02-26 14:50:00,66.6,28.7,29.86,WSW,237,0.0,0.0,24,0.00,,SKC,0.00,VWS V14.01,2013-02-26 20:50:00,
2013-02-26 14:54:00,66.7,29.8,29.86,SW,214,0.0,0.0,25,0.00,,SKC,0.00,VWS V14.01,2013-02-26 20:54:00,
2013-02-26 14:59:00,66.8,30.8,29.86,SSW,211,0.0,0.0,26,0.00,,SKC,0.00,VWS V14.01,2013-02-26 20:59:00,
2013-02-26 15:00:00,66.8,29.9,29.86,SSW,213,0.0,0.0,25,0.00,,SKC,0.00,VWS V14.01,2013-02-26 21:00:00,
2013-02-26 15:04:00,66.9,30.0,29.85,SSW,194,0.0,0.0,25,0.00,,SKC,0.00,VWS V14.01,2013-02-26 21:04:00,
2013-02-26 15:09:00,66.9,30.0,29.85,SSW,199,0.0,0.0,25,0.00,,SKC,0.00,VWS V14.01,2013-02-26 21:09:00,
2013-02-26 15:10:00,66.9,30.0,29.85,SSW,194,0.0,0.0,25,0.00,,SKC,0.00,VWS V14.01,2013-02-26 21:10:00,
2013-02-26 15:14:00,66.9,30.0,29.85,SSW,206,0.0,0.0,25,0.00,,SKC,0.00,VWS V14.01,2013-02-26 21:14:00,
2013-02-26 15:19:00,66.9,30.0,29.86,SSW,206,0.0,0.0,25,0.00,,SKC,0.00,VWS V14.01,2013-02-26 21:19:00,
2013-02-26 15:20:00,66.9,30.0,29.86,SSW,208,0.0,0.0,25,0.00,,SKC,0.00,VWS V14.01,2013-02-26 21:20:00,
2013-02-26 15:24:00,66.7,29.8,29.85,SSW,206,0.0,0.0,25,0.00,,SKC,0.00,VWS V14.01,2013-02-26 21:24:00,
2013-02-26 15:29:00,66.7,29.8,29.85,SSW,197,0.0,0.0,25,0.00,,SKC,0.00,VWS V14.01,2013-02-26 21:29:00,
2013-02-26 15:30:00,66.7,29.8,29.85,SSW,206,0.0,0.0,25,0.00,,SKC,0.00,VWS V14.01,2013-02-26 21:30:00,
2013-02-26 15:34:00,66.7,29.8,29.85,SSW,200,0.0,0.0,25,0.00,,SKC,0.00,VWS V14.01,2013-02-26 21:34:00,
2013-02-26 15:39:00,66.5,29.6,29.85,SSW,207,0.0,0.0,25,0.00,,SKC,0.00,VWS V14.01,2013-02-26 21:39:00,
2013-02-26 15:40:00,66.7,28.8,29.85,SSW,207,0.0,0.0,24,0.00,,SKC,0.00,VWS V14.01,2013-02-26 21:40:00,
2013-02-26 15:45:00,66.4,29.5,29.85,SW,219,0.0,0.0,25,0.00,,SKC,0.00,VWS V14.01,2013-02-26 21:45:00,
2013-02-26 15:50:00,66.1,29.3,29.85,SSW,209,0.0,0.0,25,0.00,,SKC,0.00,VWS V14.01,2013-02-26 21:50:00,
2013-02-26 15:55:00,65.9,29.1,29.85,SSW,209,0.0,0.0,25,0.00,,SKC,0.00,VWS V14.01,2013-02-26 21:55:00,
2013-02-26 16:00:00,66.0,29.2,29.85,SSW,213,0.0,0.0,25,0.00,,SKC,0.00,VWS V14.01,2013-02-26 22:00:00,
2013-02-26 16:05:00,66.3,28.5,29.85,SSW,210,0.0,0.0,24,0.00,,SKC,0.00,VWS V14.01,2013-02-26 22:05:00,
2013-02-26 16:10:00,66.1,29.3,29.85,SW,227,0.0,0.0,25,0.00,,SKC,0.00,VWS V14.01,2013-02-26 22:10:00,
2013-02-26 16:15:00,66.0,28.2,29.85,SW,222,0.0,0.0,24,0.00,,SKC,0.00,VWS V14.01,2013-02-26 22:15:00,
2013-02-26 16:20:00,66.1,28.3,29.85,SW,227,0.0,0.0,24,0.00,,SKC,0.00,VWS V14.01,2013-02-26 22:20:00,
2013-02-26 16:24:00,65.9,28.1,29.85,SW,218,0.0,0.0,24,0.00,,SKC,0.00,VWS V14.01,2013-02-26 22:24:00,
2013-02-26 16:29:00,65.9,28.1,29.85,SW,215,0.0,0.0,24,0.00,,SKC,0.00,VWS V14.01,2013-02-26 22:29:00,
2013-02-26 16:30:00,65.9,29.1,29.85,SW,214,0.0,0.0,25,0.00,,SKC,0.00,VWS V14.01,2013-02-26 22:30:00,
2013-02-26 16:34:00,65.8,28.0,29.85,SW,215,0.0,0.0,24,0.00,,SKC,0.00,VWS V14.01,2013-02-26 22:34:00,
2013-02-26 16:39:00,65.8,28.0,29.85,SSW,208,0.0,0.0,24,0.00,,SKC,0.00,VWS V14.01,2013-02-26 22:39:00,
2013-02-26 16:40:00,65.8,28.0,29.85,SW,215,0.0,0.0,24,0.00,,SKC,0.00,VWS V14.01,2013-02-26 22:40:00,
2013-02-26 16:44:00,65.6,27.9,29.85,SSW,207,0.0,0.0,24,0.00,,SKC,0.00,VWS V14.01,2013-02-26 22:44:00,
2013-02-26 16:49:00,65.3,27.6,29.85,SSW,205,0.0,0.0,24,0.00,,SKC,0.00,VWS V14.01,2013-02-26 22:49:00,
2013-02-26 16:50:00,65.4,27.7,29.85,SSW,205,0.0,0.0,24,0.00,,SKC,0.00,VWS V14.01,2013-02-26 22:50:00,
2013-02-26 16:54:00,65.0,28.4,29.85,SSW,205,0.0,0.0,25,0.00,,SKC,0.00,VWS V14.01,2013-02-26 22:54:00,
2013-02-26 16:59:00,64.9,28.3,29.85,SSW,207,0.0,0.0,25,0.00,,SKC,0.00,VWS V14.01,2013-02-26 22:59:00,
2013-02-26 17:00:00,64.9,27.3,29.85,SSW,207,0.0,0.0,24,0.00,,SKC,0.00,VWS V14.01,2013-02-26 23:00:00,
2013-02-26 17:04:00,64.9,28.3,29.85,SSW,205,0.0,0.0,25,0.00,,SKC,0.00,VWS V14.01,2013-02-26 23:04:00,
2013-02-26 17:09:00,65.0,27.4,29.85,SSW,207,0.0,0.0,24,0.00,,SKC,0.00,VWS V14.01,2013-02-26 23:09:00,
2013-02-26 17:10:00,64.9,28.3,29.85,SSW,205,0.0,0.0,25,0.00,,SKC,0.00,VWS V14.01,2013-02-26 23:10:00,
2013-02-26 17:14:00,65.2,27.5,29.85,SSW,209,0.0,0.0,24,0.00,,SKC,0.00,VWS V14.01,2013-02-26 23:14:00,
2013-02-26 17:19:00,65.1,27.4,29.85,SSW,210,0.0,0.0,24,0.00,,SKC,0.00,VWS V14.01,2013-02-26 23:19:00,
2013-02-26 17:20:00,65.2,26.5,29.85,SSW,209,0.0,0.0,23,0.00,,SKC,0.00,VWS V14.01,2013-02-26 23:20:00,
2013-02-26 17:24:00,64.7,26.1,29.86,SSW,207,0.0,0.0,23,0.00,,SKC,0.00,VWS V14.01,2013-02-26 23:24:00,
2013-02-26 17:29:00,64.3,25.7,29.86,SSW,207,0.0,0.0,23,0.00,,SKC,0.00,VWS V14.01,2013-02-26 23:29:00,
2013-02-26 17:30:00,64.5,25.9,29.86,SSW,207,0.0,0.0,23,0.00,,SKC,0.00,VWS V14.01,2013-02-26 23:30:00,
2013-02-26 17:34:00,64.0,26.5,29.86,SSW,209,0.0,0.0,24,0.00,,SKC,0.00,VWS V14.01,2013-02-26 23:34:00,
2013-02-26 17:39:00,63.7,26.3,29.86,SSW,211,0.0,0.0,24,0.00,,SKC,0.00,VWS V14.01,2013-02-26 23:39:00,
2013-02-26 17:40:00,63.8,26.3,29.86,SSW,211,0.0,0.0,24,0.00,,SKC,0.00,VWS V14.01,2013-02-26 23:40:00,
2013-02-26 17:44:00,63.5,27.1,29.86,SSW,211,0.0,0.0,25,0.00,,SKC,0.00,VWS V14.01,2013-02-26 23:44:00,
2013-02-26 17:49:00,63.4,27.0,29.85,SSW,211,0.0,0.0,25,0.00,,SKC,0.00,VWS V14.01,2013-02-26 23:49:00,
2013-02-26 17:50:00,63.5,27.1,29.86,SSW,211,0.0,0.0,25,0.00,,SKC,0.00,VWS V14.01,2013-02-26 23:50:00,
2013-02-26 17:54:00,63.2,26.8,29.85,SSW,211,0.0,0.0,25,0.00,,SKC,0.00,VWS V14.01,2013-02-26 23:54:00,
2013-02-26 17:59:00,63.0,27.6,29.86,SSW,211,0.0,0.0,26,0.00,,SKC,0.00,VWS V14.01,2013-02-26 23:59:00,
2013-02-26 18:00:00,63.1,27.7,29.86,SSW,211,0.0,0.0,26,0.00,,SKC,0.00,VWS V14.01,2013-02-27 00:00:00,
2013-02-26 18:04:00,62.8,27.4,29.85,SSW,211,0.0,0.0,26,0.00,,SKC,0.00,VWS V14.01,2013-02-27 00:04:00,
2013-02-26 18:09:00,62.5,27.2,29.85,SSW,211,0.0,0.0,26,0.00,,SKC,0.00,VWS V14.01,2013-02-27 00:09:00,
2013-02-26 18:10:00,62.7,27.4,29.85,SSW,211,0.0,0.0,26,0.00,,SKC,0.00,VWS V14.01,2013-02-27 00:10:00,
2013-02-26 18:14:00,62.2,26.9,29.85,SSW,211,0.0,0.0,26,0.00,,SKC,0.00,VWS V14.01,2013-02-27 00:14:00,
2013-02-26 18:19:00,61.9,27.6,29.86,SSW,211,0.0,0.0,27,0.00,,SKC,0.00,VWS V14.01,2013-02-27 00:19:00,
2013-02-26 18:20:00,62.1,26.8,29.85,SSW,211,0.0,0.0,26,0.00,,SKC,0.00,VWS V14.01,2013-02-27 00:20:00,
2013-02-26 18:24:00,61.6,27.3,29.86,SSW,211,0.0,0.0,27,0.00,,SKC,0.00,VWS V14.01,2013-02-27 00:24:00,
2013-02-26 18:29:00,61.2,27.0,29.86,SSW,211,0.0,0.0,27,0.00,,SKC,0.00,VWS V14.01,2013-02-27 00:29:00,
2013-02-26 18:30:00,61.4,27.1,29.86,SSW,211,0.0,0.0,27,0.00,,SKC,0.00,VWS V14.01,2013-02-27 00:30:00,
2013-02-26 18:34:00,60.9,27.6,29.86,SSW,211,0.0,0.0,28,0.00,,SKC,0.00,VWS V14.01,2013-02-27 00:34:00,
2013-02-26 18:39:00,60.5,27.3,29.86,SSW,211,0.0,0.0,28,0.00,,SKC,0.00,VWS V14.01,2013-02-27 00:39:00,
2013-02-26 18:40:00,58.0,27.6,29.86,SSW,211,0.0,0.0,31,0.00,,SKC,0.00,VWS V14.01,2013-02-27 00:40:00,
2013-02-26 18:44:00,60.2,27.9,29.86,SSW,211,0.0,0.0,29,0.00,,SKC,0.00,VWS V14.01,2013-02-27 00:44:00,
2013-02-26 18:49:00,59.9,27.6,29.86,SSW,211,0.0,0.0,29,0.00,,SKC,0.00,VWS V14.01,2013-02-27 00:49:00,
2013-02-26 18:50:00,57.6,28.0,29.87,SSW,211,0.0,0.0,32,0.00,,SKC,0.00,VWS V14.01,2013-02-27 00:50:00,
2013-02-26 18:54:00,59.6,27.3,29.86,SSW,211,0.0,0.0,29,0.00,,SKC,0.00,VWS V14.01,2013-02-27 00:54:00,
2013-02-26 18:59:00,59.5,27.2,29.86,SSW,211,0.0,0.0,29,0.00,,SKC,0.00,VWS V14.01,2013-02-27 00:59:00,
2013-02-26 19:00:00,59.6,27.3,29.86,SSW,211,0.0,0.0,29,0.00,,SKC,0.00,VWS V14.01,2013-02-27 01:00:00,
2013-02-26 19:04:00,59.3,27.9,29.86,SSW,211,0.0,0.0,30,0.00,,SKC,0.00,VWS V14.01,2013-02-27 01:04:00,
2013-02-26 19:09:00,59.2,27.8,29.86,SSW,211,0.0,0.0,30,0.00,,SKC,0.00,VWS V14.01,2013-02-27 01:09:00,
2013-02-26 19:10:00,59.3,27.9,29.86,SSW,211,0.0,0.0,30,0.00,,SKC,0.00,VWS V14.01,2013-02-27 01:10:00,
2013-02-26 19:14:00,59.0,27.6,29.86,SSW,211,0.0,0.0,30,0.00,,SKC,0.00,VWS V14.01,2013-02-27 01:14:00,
2013-02-26 19:19:00,58.8,28.3,29.86,SSW,211,0.0,0.0,31,0.00,,SKC,0.00,VWS V14.01,2013-02-27 01:19:00,
2013-02-26 19:20:00,58.9,27.5,29.86,SSW,211,0.0,0.0,30,0.00,,SKC,0.00,VWS V14.01,2013-02-27 01:20:00,
2013-02-26 19:24:00,58.6,28.1,29.86,SSW,211,0.0,0.0,31,0.00,,SKC,0.00,VWS V14.01,2013-02-27 01:24:00,
2013-02-26 19:29:00,58.4,27.9,29.86,SSW,211,0.0,0.0,31,0.00,,SKC,0.00,VWS V14.01,2013-02-27 01:29:00,
2013-02-26 19:30:00,58.5,28.0,29.86,SSW,211,0.0,0.0,31,0.00,,SKC,0.00,VWS V14.01,2013-02-27 01:30:00,
2013-02-26 19:34:00,58.1,27.6,29.86,SSW,211,0.0,0.0,31,0.00,,SKC,0.00,VWS V14.01,2013-02-27 01:34:00,
2013-02-26 19:39:00,57.9,28.2,29.86,SSW,211,0.0,0.0,32,0.00,,SKC,0.00,VWS V14.01,2013-02-27 01:39:00,
2013-02-26 19:40:00,58.0,27.6,29.86,SSW,211,0.0,0.0,31,0.00,,SKC,0.00,VWS V14.01,2013-02-27 01:40:00,
2013-02-26 19:44:00,57.7,28.1,29.86,SSW,211,0.0,0.0,32,0.00,,SKC,0.00,VWS V14.01,2013-02-27 01:44:00,
2013-02-26 19:49:00,57.5,27.9,29.87,SSW,211,0.0,0.0,32,0.00,,SKC,0.00,VWS V14.01,2013-02-27 01:49:00,
2013-02-26 19:50:00,57.6,28.0,29.87,SSW,211,0.0,0.0,32,0.00,,SKC,0.00,VWS V14.01,2013-02-27 01:50:00,
2013-02-26 19:54:00,57.3,28.5,29.86,SSW,211,0.0,0.0,33,0.00,,SKC,0.00,VWS V14.01,2013-02-27 01:54:00,
2013-02-26 19:59:00,57.2,27.6,29.86,SSW,211,0.0,0.0,32,0.00,,SKC,0.00,VWS V14.01,2013-02-27 01:59:00,
2013-02-26 20:00:00,57.2,27.6,29.87,SSW,211,0.0,0.0,32,0.00,,SKC,0.00,VWS V14.01,2013-02-27 02:00:00,
2013-02-26 20:04:00,57.1,28.3,29.87,SSW,211,0.0,0.0,33,0.00,,SKC,0.00,VWS V14.01,2013-02-27 02:04:00,
2013-02-26 20:09:00,57.0,28.2,29.87,SSW,211,0.0,0.0,33,0.00,,SKC,0.00,VWS V14.01,2013-02-27 02:09:00,
2013-02-26 20:10:00,57.0,28.2,29.87,SSW,211,0.0,0.0,33,0.00,,SKC,0.00,VWS V14.01,2013-02-27 02:10:00,
2013-02-26 20:14:00,56.8,28.0,29.87,SSW,211,0.0,0.0,33,0.00,,SKC,0.00,VWS V14.01,2013-02-27 02:14:00,
2013-02-26 20:20:00,56.6,27.9,29.87,SSW,211,0.0,0.0,33,0.00,,SKC,0.00,VWS V14.01,2013-02-27 02:20:00,
2013-02-26 20:25:00,56.4,28.4,29.87,SSW,211,0.0,0.0,34,0.00,,SKC,0.00,VWS V14.01,2013-02-27 02:25:00,
2013-02-26 20:30:00,56.3,28.3,29.87,SSW,211,0.0,0.0,34,0.00,,SKC,0.00,VWS V14.01,2013-02-27 02:30:00,
2013-02-26 20:35:00,56.1,28.1,29.87,SSW,211,0.0,0.0,34,0.00,,SKC,0.00,VWS V14.01,2013-02-27 02:35:00,
2013-02-26 20:40:00,56.0,28.0,29.88,SSW,211,0.0,0.0,34,0.00,,SKC,0.00,VWS V14.01,2013-02-27 02:40:00,
2013-02-26 20:45:00,55.9,28.0,29.88,SSW,211,0.0,0.0,34,0.00,,SKC,0.00,VWS V14.01,2013-02-27 02:45:00,
2013-02-26 20:50:00,55.7,28.5,29.88,SSW,211,0.0,0.0,35,0.00,,SKC,0.00,VWS V14.01,2013-02-27 02:50:00,
2013-02-26 20:55:00,55.5,28.3,29.88,SSW,211,0.0,0.0,35,0.00,,SKC,0.00,VWS V14.01,2013-02-27 02:55:00,
2013-02-26 21:00:00,55.4,28.2,29.88,SSW,211,0.0,0.0,35,0.00,,SKC,0.00,VWS V14.01,2013-02-27 03:00:00,
2013-02-26 21:05:00,55.2,28.0,29.88,SSW,211,0.0,0.0,35,0.00,,SKC,0.00,VWS V14.01,2013-02-27 03:05:00,
2013-02-26 21:10:00,55.0,27.9,29.89,SSW,211,0.0,0.0,35,0.00,,SKC,0.00,VWS V14.01,2013-02-27 03:10:00,
2013-02-26 21:15:00,54.7,27.6,29.89,SSW,211,0.0,0.0,35,0.00,,SKC,0.00,VWS V14.01,2013-02-27 03:15:00,
2013-02-26 21:20:00,54.4,28.0,29.89,SSW,211,0.0,0.0,36,0.00,,SKC,0.00,VWS V14.01,2013-02-27 03:20:00,
2013-02-26 21:25:00,54.0,28.3,29.89,SSW,211,0.0,0.0,37,0.00,,SKC,0.00,VWS V14.01,2013-02-27 03:25:00,
2013-02-26 21:30:00,53.5,27.9,29.89,SSW,211,0.0,0.0,37,0.00,,SKC,0.00,VWS V14.01,2013-02-27 03:30:00,
2013-02-26 21:35:00,53.1,28.2,29.89,SSW,211,0.0,0.0,38,0.00,,SKC,0.00,VWS V14.01,2013-02-27 03:35:00,
2013-02-26 21:40:00,52.7,27.8,29.89,SSW,211,0.0,0.0,38,0.00,,SKC,0.00,VWS V14.01,2013-02-27 03:40:00,
2013-02-26 21:45:00,52.3,27.5,29.89,SSW,211,0.0,0.0,38,0.00,,SKC,0.00,VWS V14.01,2013-02-27 03:45:00,
2013-02-26 21:50:00,51.9,27.7,29.89,SSW,211,0.0,0.0,39,0.00,,SKC,0.00,VWS V14.01,2013-02-27 03:50:00,
2013-02-26 21:55:00,51.5,27.4,29.88,SSW,211,0.0,0.0,39,0.00,,SKC,0.00,VWS V14.01,2013-02-27 03:55:00,
2013-02-26 22:00:00,51.1,27.6,29.88,SSW,211,0.0,0.0,40,0.00,,SKC,0.00,VWS V14.01,2013-02-27 04:00:00,
2013-02-26 22:05:00,50.8,27.4,29.88,SSW,211,0.0,0.0,40,0.00,,SKC,0.00,VWS V14.01,2013-02-27 04:05:00,
2013-02-26 22:10:00,50.4,27.0,29.88,SSW,211,0.0,0.0,40,0.00,,SKC,0.00,VWS V14.01,2013-02-27 04:10:00,
2013-02-26 22:15:00,50.1,27.3,29.88,SSW,211,0.0,0.0,41,0.00,,SKC,0.00,VWS V14.01,2013-02-27 04:15:00,
2013-02-26 22:20:00,49.8,27.1,29.88,SSW,211,0.0,0.0,41,0.00,,SKC,0.00,VWS V14.01,2013-02-27 04:20:00,
2013-02-26 22:25:00,49.5,27.4,29.88,SSW,211,0.0,0.0,42,0.00,,SKC,0.00,VWS V14.01,2013-02-27 04:25:00,
2013-02-26 22:30:00,49.3,27.8,29.88,SSW,211,0.0,0.0,43,0.00,,SKC,0.00,VWS V14.01,2013-02-27 04:30:00,
2013-02-26 22:35:00,49.1,27.6,29.88,SSW,211,0.0,0.0,43,0.00,,SKC,0.00,VWS V14.01,2013-02-27 04:35:00,
2013-02-26 22:40:00,48.8,27.3,29.88,SSW,211,0.0,0.0,43,0.00,,SKC,0.00,VWS V14.01,2013-02-27 04:40:00,
2013-02-26 22:45:00,48.6,27.7,29.88,SSW,211,0.0,0.0,44,0.00,,SKC,0.00,VWS V14.01,2013-02-27 04:45:00,
2013-02-26 22:50:00,48.2,27.3,29.88,SSW,211,0.0,0.0,44,0.00,,SKC,0.00,VWS V14.01,2013-02-27 04:50:00,
2013-02-26 22:55:00,47.9,27.6,29.88,SSW,211,0.0,0.0,45,0.00,,SKC,0.00,VWS V14.01,2013-02-27 04:55:00,
2013-02-26 23:00:00,47.7,27.4,29.88,SSW,211,0.0,0.0,45,0.00,,SKC,0.00,VWS V14.01,2013-02-27 05:00:00,
2013-02-26 23:05:00,47.4,27.7,29.87,SSW,211,0.0,0.0,46,0.00,,SKC,0.00,VWS V14.01,2013-02-27 05:05:00,
2013-02-26 23:10:00,47.2,28.0,29.87,SSW,211,0.0,0.0,47,0.00,,SKC,0.00,VWS V14.01,2013-02-27 05:10:00,
2013-02-26 23:15:00,46.9,27.7,29.88,SSW,211,0.0,0.0,47,0.00,,SKC,0.00,VWS V14.01,2013-02-27 05:15:00,
2013-02-26 23:20:00,46.7,27.6,29.88,SSW,211,0.0,0.0,47,0.00,,SKC,0.00,VWS V14.01,2013-02-27 05:20:00,
2013-02-26 23:25:00,46.4,27.3,29.89,SSW,211,0.0,0.0,47,0.00,,SKC,0.00,VWS V14.01,2013-02-27 05:25:00,
2013-02-26 23:30:00,46.1,27.0,29.89,SSW,211,0.0,0.0,47,0.00,,SKC,0.00,VWS V14.01,2013-02-27 05:30:00,
2013-02-26 23:35:00,45.8,27.2,29.89,SSW,211,0.0,0.0,48,0.00,,SKC,0.00,VWS V14.01,2013-02-27 05:35:00,
2013-02-26 23:40:00,45.8,26.7,29.89,SSW,211,0.0,0.0,47,0.00,,SKC,0.00,VWS V14.01,2013-02-27 05:40:00,
2013-02-26 23:45:00,46.4,26.8,29.89,SSW,211,0.0,0.0,46,0.00,,SKC,0.00,VWS V14.01,2013-02-27 05:45:00,
2013-02-26 23:50:00,47.7,26.9,29.88,SSW,211,0.0,0.0,44,0.00,,SKC,0.00,VWS V14.01,2013-02-27 05:50:00,
2013-02-26 23:55:00,48.5,27.0,29.88,SSW,211,0.0,0.0,43,0.00,,SKC,0.00,VWS V14.01,2013-02-27 05:55:00,